Location: Unspecified
(0.0000°N, 0.0000°E)
Time: 20:59:45
(UTC+00:00)

Transit 4A - Pass Details

Date: 06 June 2022
Orbit: 864 x 980 km, 66.8° (Epoch: 26 June)

Event Time Altitude Azimuth Distance (km) Brightness Sun altitude
Rises 12:50:10 0° 305° (NW) 3,503 11.2 64.1°
Reaches altitude 10° 12:53:57 10° 281° (W) 2,543 10.6 63.6°
Maximum altitude 12:56:56 14° 250° (WSW) 2,238 10.2 63.3°
Drops below altitude 10° 12:59:55 10° 219° (SW) 2,519 10.2 62.9°
Sets 13:03:40 0° 195° (SSW) 3,448 10.7 62.4°
